,,Stat5,,Stat1,,Stat2,,Stat3,,Stat4,,Wind1,,Wind1,
time,status,PA1M_AVG,status,PR1M_SUM,status,RH1M_AVG,status,SR1M_AVG,status,TA1M_AVG,status,W1dAve1m,status,W1sAve1m,
2003-03-13, 00:00:00,VALID,919.837,VALID,0,VALID,95.9998,VALID,0,VALID,20.0492,VALID,170,VALID,0.952123,
2003-03-13, 00:01:00,VALID,919.837,VALID,0,VALID,96.0417,VALID,0,VALID,20.036,VALID,169,VALID,0.950955,
2003-03-13, 00:02:00,VALID,919.813,VALID,0,VALID,96.1842,VALID,0,VALID,20.0196,VALID,150,VALID,0.957812,
2003-03-13, 00:03:00,VALID,919.833,VALID,0,VALID,96.2821,VALID,0,VALID,20.033,VALID,142,VALID,0.973184,
2003-03-13, 00:04:00,VALID,919.839,VALID,0,VALID,96.338,VALID,0,VALID,20.0169,VALID,158,VALID,1.17839,
2003-03-13, 00:05:00,VALID,919.828,VALID,0,VALID,96.3902,VALID,0.0169808,VALID,19.9972,VALID,151,VALID,1.00332,
2003-03-13, 00:06:00,VALID,919.833,VALID,0,VALID,96.427,VALID,0.0339617,VALID,19.9935,VALID,159,VALID,1.09195,
2003-03-13, 00:07:00,VALID,919.826,VALID,0,VALID,96.4334,VALID,0,VALID,19.9967,VALID,167,VALID,0.910979,
2003-03-13, 00:08:00,VALID,919.809,VALID,0,VALID,96.4296,VALID,0.0169808,VALID,20.0099,VALID,153,VALID,1.20334,
2003-03-13, 00:09:00,VALID,919.806,VALID,0,VALID,96.4499,VALID,0,VALID,20.0198,VALID,151,VALID,1.15393,
2003-03-13, 00:10:00,VALID,919.793,VALID,0,VALID,96.4525,VALID,0.0339617,VALID,20.0131,VALID,149,VALID,1.19942,
2003-03-13, 00:11:00,VALID,919.787,VALID,0,VALID,96.3024,VALID,0.0169808,VALID,20.026,VALID,145,VALID,1.08635,
2003-03-13, 00:12:00,VALID,919.785,VALID,0,VALID,96.1257,VALID,0.0169808,VALID,20.0392,VALID,151,VALID,1.1742,
2003-03-13, 00:13:00,VALID,919.779,VALID,0,VALID,95.926,VALID,0.0509425,VALID,20.0581,VALID,132,VALID,1.2519,
2003-03-13, 00:14:00,VALID,919.775,VALID,0,VALID,95.79,VALID,0,VALID,20.0902,VALID,119,VALID,1.04749,
2003-03-13, 00:15:00,VALID,919.772,VALID,0,VALID,95.7124,VALID,0.0169808,VALID,20.1163,VALID,147,VALID,0.742399,
2003-03-13, 00:16:00,VALID,919.77,VALID,0,VALID,95.645,VALID,0,VALID,20.1292,VALID,132,VALID,1.06831,
2003-03-13, 00:17:00,VALID,919.766,VALID,0,VALID,95.6005,VALID,0.0509425,VALID,20.1454,VALID,147,VALID,0.519215,
2003-03-13, 00:18:00,VALID,919.77,VALID,0,VALID,95.5891,VALID,0.0169808,VALID,20.1615,VALID,149,VALID,0.678248,
2003-03-13, 00:19:00,VALID,919.769,VALID,0,VALID,95.5789,VALID,0.0509425,VALID,20.1645,VALID,135,VALID,0.935268,
2003-03-13, 00:20:00,VALID,919.757,VALID,0,VALID,95.5242,VALID,0.0169808,VALID,20.165,VALID,139,VALID,1.27323,
2003-03-13, 00:21:00,VALID,919.763,VALID,0,VALID,95.6259,VALID,0.0509425,VALID,20.1615,VALID,122,VALID,0.682492,
2003-03-13, 00:22:00,VALID,919.765,VALID,0,VALID,95.6921,VALID,0.0509425,VALID,20.1518,VALID,97,VALID,0.641964,
2003-03-13, 00:23:00,VALID,919.748,VALID,0,VALID,95.7989,VALID,0.0339617,VALID,20.1588,VALID,105,VALID,0.215583,
2003-03-13, 00:24:00,VALID,919.745,VALID,0,VALID,95.8574,VALID,0.0339617,VALID,20.1391,VALID,118,VALID,0.257378,
2003-03-13, 00:25:00,VALID,919.73,VALID,0,VALID,95.9349,VALID,0.0509425,VALID,20.116,VALID,110,VALID,0.137891,
2003-03-13, 00:26:00,VALID,919.731,VALID,0,VALID,96.0494,VALID,0.0509425,VALID,20.1028,VALID,101,VALID,0.233574,
2003-03-13, 00:27:00,VALID,919.72,VALID,0,VALID,96.1282,VALID,0.0169808,VALID,20.0931,VALID,97,VALID,0.112459,
2003-03-13, 00:28:00,VALID,919.702,VALID,0,VALID,96.1676,VALID,0.0679233,VALID,20.0835,VALID,92,VALID,0.104601,
2003-03-13, 00:29:00,VALID,919.694,VALID,0,VALID,96.2096,VALID,0.0509425,VALID,20.0907,VALID,92,VALID,0.0154139,
2003-03-13, 00:30:00,VALID,919.664,VALID,0,VALID,96.2694,VALID,0.0679233,VALID,20.071,VALID,92,VALID,0,
2003-03-13, 00:31:00,VALID,919.667,VALID,0,VALID,96.3787,VALID,0.0679233,VALID,20.0673,VALID,92,VALID,0,
2003-03-13, 00:32:00,VALID,919.665,VALID,0,VALID,96.4398,VALID,0.0509425,VALID,20.0646,VALID,94,VALID,0.097973,
2003-03-13, 00:33:00,VALID,919.66,VALID,0,VALID,96.4258,VALID,0.0509425,VALID,20.0516,VALID,95,VALID,0,
2003-03-13, 00:34:00,VALID,919.631,VALID,0,VALID,96.5148,VALID,0,VALID,20.0482,VALID,95,VALID,0.0178865,
2003-03-13, 00:35:00,VALID,919.628,VALID,0,VALID,96.572,VALID,0.0169808,VALID,20.0519,VALID,95,VALID,0,
2003-03-13, 00:36:00,VALID,919.617,VALID,0,VALID,96.6445,VALID,0,VALID,20.0328,VALID,95,VALID,0.0228365,
2003-03-13, 00:37:00,VALID,919.61,VALID,0,VALID,96.7933,VALID,-0.0679233,VALID,20.0305,VALID,94,VALID,0.000844595,
2003-03-13, 00:38:00,VALID,919.605,VALID,0,VALID,96.7602,VALID,-0.0509425,VALID,20.0074,VALID,92,VALID,0.27426,
2003-03-13, 00:39:00,VALID,919.595,VALID,0,VALID,96.7945,VALID,-0.0509425,VALID,19.9686,VALID,92,VALID,0.0484375,
2003-03-13, 00:40:00,VALID,919.571,VALID,0,VALID,96.9649,VALID,-0.0509425,VALID,19.9463,VALID,90,VALID,0.0696791,
2003-03-13, 00:41:00,VALID,919.55,VALID,0,VALID,97.1468,VALID,-0.101885,VALID,19.9266,VALID,30,VALID,0.246194,
2003-03-13, 00:42:00,VALID,919.539,VALID,0,VALID,97.3159,VALID,-0.0509425,VALID,19.9167,VALID,24,VALID,0.16183,
2003-03-13, 00:43:00,VALID,919.503,VALID,0,VALID,97.4113,VALID,-0.0339617,VALID,19.9008,VALID,24,VALID,0.323902,
2003-03-13, 00:44:00,VALID,919.492,VALID,0,VALID,97.5015,VALID,-0.0339617,VALID,19.8747,VALID,24,VALID,0.218099,
2003-03-13, 00:45:00,VALID,919.478,VALID,0,VALID,97.602,VALID,-0.0509425,VALID,19.8583,VALID,24,VALID,0.192969,
2003-03-13, 00:46:00,VALID,919.477,VALID,0,VALID,97.6592,VALID,-0.0339617,VALID,19.859,VALID,24,VALID,0.11879,
2003-03-13, 00:47:00,VALID,919.472,VALID,0,VALID,97.747,VALID,-0.0679233,VALID,19.8431,VALID,24,VALID,0,
2003-03-13, 00:48:00,VALID,919.474,VALID,0,VALID,97.7788,VALID,-0.0339617,VALID,19.8227,VALID,24,VALID,0,
2003-03-13, 00:49:00,VALID,919.454,VALID,0,VALID,97.822,VALID,-0.0169808,VALID,19.8133,VALID,24,VALID,0,
2003-03-13, 00:50:00,VALID,919.456,VALID,0,VALID,97.9174,VALID,-0.0339617,VALID,19.8334,VALID,24,VALID,0.0968339,
2003-03-13, 00:51:00,VALID,919.453,VALID,0,VALID,98.0013,VALID,-0.0509425,VALID,19.8394,VALID,24,VALID,0,
2003-03-13, 00:52:00,VALID,919.457,VALID,0,VALID,98.0077,VALID,-0.0339617,VALID,19.8461,VALID,24,VALID,0,
2003-03-13, 00:53:00,VALID,919.443,VALID,0,VALID,98.0293,VALID,-0.0509425,VALID,19.8265,VALID,24,VALID,0,
2003-03-13, 00:54:00,VALID,919.436,VALID,0,VALID,98.0115,VALID,-0.0509425,VALID,19.8235,VALID,24,VALID,0,
2003-03-13, 00:55:00,VALID,919.426,VALID,0,VALID,98.0077,VALID,-0.0509425,VALID,19.8073,VALID,24,VALID,0.0876267,
2003-03-13, 00:56:00,VALID,919.417,VALID,0,VALID,98.0204,VALID,-0.0679233,VALID,19.7942,VALID,24,VALID,0.0763221,
2003-03-13, 00:57:00,VALID,919.398,VALID,0,VALID,98.0382,VALID,-0.0849042,VALID,19.7783,VALID,24,VALID,0.286106,
2003-03-13, 00:58:00,VALID,919.377,VALID,0,VALID,98.0458,VALID,-0.0849042,VALID,19.7621,VALID,30,VALID,0.389186,
2003-03-13, 00:59:00,VALID,919.363,VALID,0,VALID,98.0026,VALID,-0.0509425,VALID,19.7628,VALID,54,VALID,0.60692,
2003-03-13, 01:00:00,VALID,919.347,VALID,0,VALID,98.0382,VALID,-0.0509425,VALID,19.7497,VALID,44,VALID,0.211782,
2003-03-13, 01:01:00,VALID,919.315,VALID,0,VALID,98.0547,VALID,-0.101885,VALID,19.74,VALID,52,VALID,0.227965,
2003-03-13, 01:02:00,VALID,919.286,VALID,0,VALID,98.0445,VALID,-0.0679233,VALID,19.7273,VALID,51,VALID,0.19442,
2003-03-13, 01:03:00,VALID,919.284,VALID,0,VALID,98.0496,VALID,-0.0509425,VALID,19.7037,VALID,47,VALID,0.154983,
2003-03-13, 01:04:00,VALID,919.275,VALID,0,VALID,98.0738,VALID,-0.0339617,VALID,19.7042,VALID,33,VALID,0.327474,
2003-03-13, 01:05:00,VALID,919.262,VALID,0,VALID,98.0839,VALID,-0.0509425,VALID,19.6908,VALID,12,VALID,0.491602,
2003-03-13, 01:06:00,VALID,919.26,VALID,0,VALID,98.1259,VALID,-0.0679233,VALID,19.7074,VALID,347,VALID,0.600962,
2003-03-13, 01:07:00,VALID,919.244,VALID,0,VALID,98.1374,VALID,-0.0509425,VALID,19.7005,VALID,354,VALID,0.365132,
2003-03-13, 01:08:00,VALID,919.259,VALID,0,VALID,98.1106,VALID,-0.0679233,VALID,19.7039,VALID,354,VALID,0.286675,
2003-03-13, 01:09:00,VALID,919.234,VALID,0,VALID,98.178,VALID,-0.0849042,VALID,19.7037,VALID,354,VALID,0.286318,
2003-03-13, 01:10:00,VALID,919.24,VALID,0,VALID,98.1946,VALID,-0.0509425,VALID,19.7102,VALID,354,VALID,0.18935,
2003-03-13, 01:11:00,VALID,919.237,VALID,0,VALID,98.1272,VALID,-0.0339617,VALID,19.7072,VALID,354,VALID,0.0446135,
2003-03-13, 01:12:00,VALID,919.228,VALID,0,VALID,98.1272,VALID,-0.0169808,VALID,19.6811,VALID,354,VALID,0,
2003-03-13, 01:13:00,VALID,919.221,VALID,0,VALID,98.1679,VALID,-0.0509425,VALID,19.6816,VALID,354,VALID,0.256334,
2003-03-13, 01:14:00,VALID,919.203,VALID,0,VALID,98.1933,VALID,-0.0679233,VALID,19.6721,VALID,354,VALID,0.168997,
2003-03-13, 01:15:00,VALID,919.204,VALID,0,VALID,98.2315,VALID,-0.0849042,VALID,19.6783,VALID,354,VALID,0.03125,
2003-03-13, 01:16:00,VALID,919.206,VALID,0,VALID,98.1997,VALID,-0.0679233,VALID,19.6587,VALID,354,VALID,0,
2003-03-13, 01:17:00,VALID,919.203,VALID,0,VALID,98.1374,VALID,-0.0509425,VALID,19.6393,VALID,354,VALID,0,
2003-03-13, 01:18:00,VALID,919.219,VALID,0,VALID,98.103,VALID,-0.0509425,VALID,19.617,VALID,354,VALID,0.00472862,
2003-03-13, 01:19:00,VALID,919.211,VALID,0,VALID,98.1399,VALID,-0.0679233,VALID,19.601,VALID,354,VALID,0.374777,
2003-03-13, 01:20:00,VALID,919.224,VALID,0,VALID,98.1564,VALID,-0.0849042,VALID,19.6013,VALID,33,VALID,0.613176,
2003-03-13, 01:21:00,VALID,919.226,VALID,0,VALID,98.173,VALID,-0.0509425,VALID,19.5879,VALID,40,VALID,0.639022,
2003-03-13, 01:22:00,VALID,919.233,VALID,0,VALID,98.117,VALID,-0.0509425,VALID,19.5615,VALID,40,VALID,0.561607,
2003-03-13, 01:23:00,VALID,919.214,VALID,0,VALID,98.1399,VALID,-0.0169808,VALID,19.5461,VALID,40,VALID,0.446368,
2003-03-13, 01:24:00,VALID,919.214,VALID,0,VALID,98.1806,VALID,-0.0509425,VALID,19.5397,VALID,46,VALID,0.552517,
2003-03-13, 01:25:00,VALID,919.2,VALID,0,VALID,98.2251,VALID,-0.0849042,VALID,19.53,VALID,58,VALID,0.784375,
2003-03-13, 01:26:00,VALID,919.194,VALID,0,VALID,98.2963,VALID,-0.0509425,VALID,19.5364,VALID,57,VALID,0.664263,
2003-03-13, 01:27:00,VALID,919.191,VALID,0,VALID,98.3217,VALID,-0.0679233,VALID,19.5429,VALID,61,VALID,0.807566,
2003-03-13, 01:28:00,VALID,919.175,VALID,0,VALID,98.3065,VALID,-0.101885,VALID,19.5394,VALID,47,VALID,0.780165,
2003-03-13, 01:29:00,VALID,919.176,VALID,0,VALID,98.3167,VALID,-0.0509425,VALID,19.5464,VALID,52,VALID,0.603674,
2003-03-13, 01:30:00,VALID,919.167,VALID,0,VALID,98.3472,VALID,-0.0169808,VALID,19.5417,VALID,64,VALID,0.775493,
2003-03-13, 01:31:00,VALID,919.16,VALID,0,VALID,98.3942,VALID,0.0169808,VALID,19.5571,VALID,89,VALID,0.956414,
2003-03-13, 01:32:00,VALID,919.161,VALID,0,VALID,98.3853,VALID,0.0339617,VALID,19.5802,VALID,79,VALID,0.725084,
2003-03-13, 01:33:00,VALID,919.148,VALID,0,VALID,98.4247,VALID,0.0509425,VALID,19.6065,VALID,111,VALID,0.68391,
2003-03-13, 01:34:00,VALID,919.134,VALID,0,VALID,98.4451,VALID,0.0339617,VALID,19.616,VALID,120,VALID,0.451275,
2003-03-13, 01:35:00,VALID,919.118,VALID,0,VALID,98.4044,VALID,0.0169808,VALID,19.6353,VALID,103,VALID,0.572635,
2003-03-13, 01:36:00,VALID,919.098,VALID,0,VALID,98.3421,VALID,0.0169808,VALID,19.6577,VALID,107,VALID,0.397436,
2003-03-13, 01:37:00,VALID,919.077,VALID,0,VALID,98.3039,VALID,-0.101885,VALID,19.6592,VALID,139,VALID,0.624367,
2003-03-13, 01:38:00,VALID,919.055,VALID,0,VALID,98.281,VALID,-0.0849042,VALID,19.6721,VALID,138,VALID,0.502467,
2003-03-13, 01:39:00,VALID,919.033,VALID,0,VALID,98.2569,VALID,-0.0679233,VALID,19.6719,VALID,146,VALID,0.693973,
2003-03-13, 01:40:00,VALID,919.02,VALID,0,VALID,98.2124,VALID,-0.0849042,VALID,19.6786,VALID,84,VALID,0.557432,
2003-03-13, 01:41:00,VALID,919.011,VALID,0,VALID,98.1564,VALID,-0.0849042,VALID,19.6982,VALID,149,VALID,0.575521,
2003-03-13, 01:42:00,VALID,918.988,VALID,0,VALID,98.1272,VALID,-0.0849042,VALID,19.6913,VALID,139,VALID,0.704241,
2003-03-13, 01:43:00,VALID,918.966,VALID,0,VALID,98.1412,VALID,-0.0849042,VALID,19.6883,VALID,161,VALID,0.410262,
2003-03-13, 01:44:00,VALID,918.951,VALID,0,VALID,98.1501,VALID,-0.0849042,VALID,19.6818,VALID,152,VALID,0.356771,
2003-03-13, 01:45:00,VALID,918.92,VALID,0,VALID,98.1806,VALID,-0.0849042,VALID,19.6851,VALID,155,VALID,0.601367,
2003-03-13, 01:46:00,VALID,918.897,VALID,0,VALID,98.1997,VALID,-0.0849042,VALID,19.6724,VALID,148,VALID,0.705929,
2003-03-13, 01:47:00,VALID,918.867,VALID,0,VALID,98.2251,VALID,-0.0679233,VALID,19.6726,VALID,144,VALID,0.413446,
2003-03-13, 01:48:00,VALID,918.845,VALID,0,VALID,98.276,VALID,-0.101885,VALID,19.6495,VALID,137,VALID,0.0164931,
2003-03-13, 01:49:00,VALID,918.821,VALID,0,VALID,98.3014,VALID,-0.101885,VALID,19.656,VALID,137,VALID,0.182221,
2003-03-13, 01:50:00,VALID,918.792,VALID,0,VALID,98.3039,VALID,-0.0849042,VALID,19.6465,VALID,136,VALID,0.138363,
2003-03-13, 01:51:00,VALID,918.76,VALID,0,VALID,98.2912,VALID,-0.0849042,VALID,19.6366,VALID,136,VALID,0,
2003-03-13, 01:52:00,VALID,918.726,VALID,0,VALID,98.3052,VALID,0.0339617,VALID,19.645,VALID,136,VALID,0,
2003-03-13, 01:53:00,VALID,918.715,VALID,0,VALID,98.3281,VALID,0.0339617,VALID,19.6513,VALID,136,VALID,0,
2003-03-13, 01:54:00,VALID,918.691,VALID,0,VALID,98.3751,VALID,0.0339617,VALID,19.6609,VALID,136,VALID,0.0703125,
2003-03-13, 01:55:00,VALID,918.661,VALID,0,VALID,98.3726,VALID,0.0169808,VALID,19.6642,VALID,138,VALID,0.165329,
2003-03-13, 01:56:00,VALID,918.64,VALID,0,VALID,98.3332,VALID,0.0509425,VALID,19.6711,VALID,138,VALID,0,
2003-03-13, 01:57:00,VALID,918.618,VALID,0,VALID,98.3344,VALID,0.0169808,VALID,19.6612,VALID,138,VALID,0.0130912,
2003-03-13, 01:58:00,VALID,918.616,VALID,0,VALID,98.3395,VALID,0.0509425,VALID,19.6709,VALID,56,VALID,0.519326,
2003-03-13, 01:59:00,VALID,918.589,VALID,0,VALID,98.3014,VALID,0.0679233,VALID,19.6478,VALID,38,VALID,0.598437,
2003-03-13, 02:00:00,VALID,918.558,VALID,0,VALID,98.2861,VALID,0.0679233,VALID,19.6383,VALID,38,VALID,0.549198,
2003-03-13, 02:01:00,VALID,918.537,VALID,0,VALID,98.2645,VALID,0.0339617,VALID,19.6249,VALID,53,VALID,0.780849,
2003-03-13, 02:02:00,VALID,918.514,VALID,0,VALID,98.2048,VALID,0.0509425,VALID,19.606,VALID,72,VALID,0.924777,
2003-03-13, 02:03:00,VALID,918.5,VALID,0,VALID,98.1641,VALID,0.0509425,VALID,19.5966,VALID,92,VALID,1.14527,
2003-03-13, 02:04:00,VALID,918.49,VALID,0,VALID,98.1374,VALID,0.0509425,VALID,19.5769,VALID,113,VALID,0.998698,
2003-03-13, 02:05:00,VALID,918.463,VALID,0,VALID,98.1386,VALID,0.0169808,VALID,19.574,VALID,128,VALID,1.24785,
2003-03-13, 02:06:00,VALID,918.419,VALID,0,VALID,98.1386,VALID,0,VALID,19.5834,VALID,139,VALID,1.24319,
2003-03-13, 02:07:00,VALID,918.398,VALID,0,VALID,98.0954,VALID,0.0169808,VALID,19.5998,VALID,135,VALID,1.38857,
2003-03-13, 02:08:00,VALID,918.378,VALID,0,VALID,98.0127,VALID,0.0849042,VALID,19.6127,VALID,125,VALID,0.930339,
2003-03-13, 02:09:00,VALID,918.391,VALID,0,VALID,97.8919,VALID,0.0169808,VALID,19.6192,VALID,107,VALID,1.06398,
2003-03-13, 02:10:00,VALID,918.396,VALID,0,VALID,97.8411,VALID,0.0849042,VALID,19.6125,VALID,119,VALID,0.791118,
2003-03-13, 02:11:00,VALID,918.373,VALID,0,VALID,97.8767,VALID,0.0339617,VALID,19.603,VALID,135,VALID,0.658306,
2003-03-13, 02:12:00,VALID,918.371,VALID,0,VALID,97.9619,VALID,0.0509425,VALID,19.6025,VALID,113,VALID,0.918708,
2003-03-13, 02:13:00,VALID,918.356,VALID,0,VALID,98.0153,VALID,0.0339617,VALID,19.6227,VALID,75,VALID,0.761824,
2003-03-13, 02:14:00,VALID,918.339,VALID,0,VALID,97.9949,VALID,0.0339617,VALID,19.6155,VALID,82,VALID,0.360814,
2003-03-13, 02:15:00,VALID,918.319,VALID,0,VALID,98.0026,VALID,0.0339617,VALID,19.6192,VALID,123,VALID,0.807855,
2003-03-13, 02:16:00,VALID,918.312,VALID,0,VALID,97.9835,VALID,0.0169808,VALID,19.6252,VALID,84,VALID,0.69992,
2003-03-13, 02:17:00,VALID,918.287,VALID,0,VALID,97.9619,VALID,0.0339617,VALID,19.649,VALID,107,VALID,0.533784,
2003-03-13, 02:18:00,VALID,918.271,VALID,0,VALID,97.9301,VALID,0,VALID,19.6418,VALID,109,VALID,0.814762,
2003-03-13, 02:19:00,VALID,918.238,VALID,0,VALID,97.9021,VALID,0.0339617,VALID,19.6413,VALID,114,VALID,1.025,
2003-03-13, 02:20:00,VALID,918.208,VALID,0,VALID,97.8805,VALID,0.0509425,VALID,19.6677,VALID,132,VALID,0.911529,
2003-03-13, 02:21:00,VALID,918.181,VALID,0,VALID,97.836,VALID,0.0509425,VALID,19.6701,VALID,118,VALID,1.16466,
2003-03-13, 02:22:00,VALID,918.15,VALID,0,VALID,97.7432,VALID,-0.0679233,VALID,19.6915,VALID,103,VALID,1.00714,
2003-03-13, 02:23:00,VALID,918.144,VALID,0,VALID,97.6961,VALID,-0.0509425,VALID,19.6947,VALID,81,VALID,0.660473,
2003-03-13, 02:24:00,VALID,918.132,VALID,0,VALID,97.6719,VALID,-0.0509425,VALID,19.698,VALID,92,VALID,0.944878,
2003-03-13, 02:25:00,VALID,918.103,VALID,0,VALID,97.6491,VALID,-0.0169808,VALID,19.7077,VALID,93,VALID,0.827148,
2003-03-13, 02:26:00,VALID,918.097,VALID,0,VALID,97.63,VALID,-0.0169808,VALID,19.7107,VALID,91,VALID,0.945313,
2003-03-13, 02:27:00,VALID,918.086,VALID,0,VALID,97.6096,VALID,-0.0509425,VALID,19.7074,VALID,98,VALID,1.13877,
2003-03-13, 02:28:00,VALID,918.073,VALID,0,VALID,97.5893,VALID,-0.0169808,VALID,19.7176,VALID,97,VALID,0.778429,
2003-03-13, 02:29:00,VALID,918.082,VALID,0,VALID,97.6096,VALID,-0.0679233,VALID,19.7176,VALID,85,VALID,1.19341,
2003-03-13, 02:30:00,VALID,918.076,VALID,0,VALID,97.6529,VALID,-0.0169808,VALID,19.7039,VALID,93,VALID,0.891859,
2003-03-13, 02:31:00,VALID,918.068,VALID,0,VALID,97.691,VALID,0,VALID,19.688,VALID,97,VALID,1.0257,
2003-03-13, 02:32:00,VALID,918.068,VALID,0,VALID,97.7368,VALID,0,VALID,19.6913,VALID,95,VALID,0.996622,
2003-03-13, 02:33:00,VALID,918.05,VALID,0,VALID,97.7966,VALID,-0.0509425,VALID,19.6853,VALID,112,VALID,1.00338,
2003-03-13, 02:34:00,VALID,918.04,VALID,0,VALID,97.8449,VALID,-0.0339617,VALID,19.6592,VALID,98,VALID,0.657689,
2003-03-13, 02:35:00,VALID,918.025,VALID,0,VALID,97.8881,VALID,-0.0679233,VALID,19.6493,VALID,125,VALID,1.2973,
2003-03-13, 02:36:00,VALID,918.005,VALID,0,VALID,97.9008,VALID,-0.0169808,VALID,19.6426,VALID,134,VALID,1.17047,
2003-03-13, 02:37:00,VALID,917.987,VALID,0,VALID,97.9301,VALID,-0.0169808,VALID,19.6493,VALID,132,VALID,0.878378,
2003-03-13, 02:38:00,VALID,917.971,VALID,0,VALID,97.9225,VALID,0,VALID,19.6522,VALID,120,VALID,0.571957,
2003-03-13, 02:39:00,VALID,917.964,VALID,0,VALID,97.9504,VALID,-0.0509425,VALID,19.6662,VALID,124,VALID,0.668527,
2003-03-13, 02:40:00,VALID,917.964,VALID,0,VALID,97.9301,VALID,-0.0169808,VALID,19.6724,VALID,153,VALID,0.830236,
2003-03-13, 02:41:00,VALID,917.957,VALID,0,VALID,97.9008,VALID,-0.0169808,VALID,19.6652,VALID,122,VALID,0.523237,
2003-03-13, 02:42:00,VALID,917.959,VALID,0,VALID,97.883,VALID,-0.0339617,VALID,19.6453,VALID,154,VALID,0.611607,
2003-03-13, 02:43:00,VALID,917.968,VALID,0,VALID,97.8029,VALID,0,VALID,19.6624,VALID,137,VALID,0.871199,
2003-03-13, 02:44:00,VALID,917.989,VALID,0,VALID,97.7343,VALID,-0.0339617,VALID,19.659,VALID,141,VALID,0.983073,
2003-03-13, 02:45:00,VALID,918.001,VALID,0,VALID,97.6796,VALID,-0.0339617,VALID,19.6851,VALID,128,VALID,1.0041,
2003-03-13, 02:46:00,VALID,918.008,VALID,0,VALID,97.5804,VALID,-0.0509425,VALID,19.6942,VALID,121,VALID,1.01943,
2003-03-13, 02:47:00,VALID,918.013,VALID,0,VALID,97.5473,VALID,-0.0339617,VALID,19.7176,VALID,158,VALID,0.363281,
2003-03-13, 02:48:00,VALID,918.012,VALID,0,VALID,97.4621,VALID,0,VALID,19.7271,VALID,94,VALID,0.888672,
2003-03-13, 02:49:00,VALID,918.009,VALID,0,VALID,97.3668,VALID,-0.0509425,VALID,19.7231,VALID,76,VALID,0.798775,
2003-03-13, 02:50:00,VALID,918.015,VALID,0,VALID,97.3769,VALID,-0.0679233,VALID,19.7397,VALID,43,VALID,0.444696,
2003-03-13, 02:51:00,VALID,917.999,VALID,0,VALID,97.3579,VALID,-0.0509425,VALID,19.7529,VALID,91,VALID,0.524465,
2003-03-13, 02:52:00,VALID,918.01,VALID,0,VALID,97.3451,VALID,-0.0339617,VALID,19.742,VALID,88,VALID,0.352618,
2003-03-13, 02:53:00,VALID,918.009,VALID,0,VALID,97.2994,VALID,-0.0509425,VALID,19.7656,VALID,88,VALID,0.708404,
2003-03-13, 02:54:00,VALID,917.98,VALID,0,VALID,97.1671,VALID,-0.0339617,VALID,19.7628,VALID,73,VALID,0.77611,
2003-03-13, 02:55:00,VALID,917.979,VALID,0,VALID,97.1086,VALID,-0.0339617,VALID,19.7559,VALID,68,VALID,0.481841,
2003-03-13, 02:56:00,VALID,917.954,VALID,0,VALID,97.0565,VALID,-0.0509425,VALID,19.7658,VALID,90,VALID,0.463542,
2003-03-13, 02:57:00,VALID,917.921,VALID,0,VALID,97.0323,VALID,-0.101885,VALID,19.7795,VALID,104,VALID,0.458404,
2003-03-13, 02:58:00,VALID,917.866,VALID,0,VALID,96.9649,VALID,-0.0849042,VALID,19.7753,VALID,132,VALID,0.741365,
2003-03-13, 02:59:00,VALID,917.833,VALID,0,VALID,96.9509,VALID,-0.0509425,VALID,19.782,VALID,128,VALID,0.331473,
2003-03-13, 03:00:00,VALID,917.813,VALID,0,VALID,96.9408,VALID,-0.0679233,VALID,19.7947,VALID,114,VALID,0.550253,
2003-03-13, 03:01:00,VALID,917.799,VALID,0,VALID,96.9026,VALID,-0.0339617,VALID,19.8009,VALID,88,VALID,0.632011,
2003-03-13, 03:02:00,VALID,917.777,VALID,0,VALID,96.8034,VALID,-0.0849042,VALID,19.8083,VALID,113,VALID,0.827455,
2003-03-13, 03:03:00,VALID,917.767,VALID,0,VALID,96.7844,VALID,-0.0339617,VALID,19.8116,VALID,107,VALID,0.638514,
2003-03-13, 03:04:00,VALID,917.772,VALID,0,VALID,96.7704,VALID,-0.0509425,VALID,19.8076,VALID,90,VALID,0.150825,
2003-03-13, 03:05:00,VALID,917.759,VALID,0,VALID,96.7449,VALID,-0.0509425,VALID,19.8108,VALID,123,VALID,0.473828,
2003-03-13, 03:06:00,VALID,917.744,VALID,0,VALID,96.7399,VALID,-0.0849042,VALID,19.7949,VALID,149,VALID,0.509615,
2003-03-13, 03:07:00,VALID,917.746,VALID,0,VALID,96.7615,VALID,0.0509425,VALID,19.7934,VALID,132,VALID,0.123561,
2003-03-13, 03:08:00,VALID,917.727,VALID,0,VALID,96.7729,VALID,0.0169808,VALID,19.7735,VALID,132,VALID,0.306424,
2003-03-13, 03:09:00,VALID,917.713,VALID,0,VALID,96.7818,VALID,0.0679233,VALID,19.7775,VALID,118,VALID,0.425042,
2003-03-13, 03:10:00,VALID,917.696,VALID,0,VALID,96.8352,VALID,0.0509425,VALID,19.7641,VALID,152,VALID,0.587993,
2003-03-13, 03:11:00,VALID,917.659,VALID,0,VALID,96.8518,VALID,0.0169808,VALID,19.7512,VALID,137,VALID,0.80551,
2003-03-13, 03:12:00,VALID,917.642,VALID,0,VALID,96.9077,VALID,0.0339617,VALID,19.7581,VALID,139,VALID,1.11149,
2003-03-13, 03:13:00,VALID,917.613,VALID,0,VALID,96.8657,VALID,0.0679233,VALID,19.7676,VALID,138,VALID,1.25802,
2003-03-13, 03:14:00,VALID,917.586,VALID,0,VALID,96.8251,VALID,0.0169808,VALID,19.7743,VALID,125,VALID,1.05058,
2003-03-13, 03:15:00,VALID,917.57,VALID,0,VALID,96.7945,VALID,0,VALID,19.7778,VALID,138,VALID,1.23606,
2003-03-13, 03:16:00,VALID,917.558,VALID,0,VALID,96.7717,VALID,0.0339617,VALID,19.7604,VALID,133,VALID,1.23658,
2003-03-13, 03:17:00,VALID,917.56,VALID,0,VALID,96.7399,VALID,0.0169808,VALID,19.7805,VALID,130,VALID,1.2766,
2003-03-13, 03:18:00,VALID,917.546,VALID,0,VALID,96.7182,VALID,0.0339617,VALID,19.7807,VALID,142,VALID,1.31702,
2003-03-13, 03:19:00,VALID,917.548,VALID,0,VALID,96.6814,VALID,0.0509425,VALID,19.7738,VALID,123,VALID,1.18438,
2003-03-13, 03:20:00,VALID,917.553,VALID,0,VALID,96.6445,VALID,0.0339617,VALID,19.7837,VALID,119,VALID,0.992188,
2003-03-13, 03:21:00,VALID,917.562,VALID,0,VALID,96.6585,VALID,0.0339617,VALID,19.7805,VALID,133,VALID,0.992388,
2003-03-13, 03:22:00,VALID,917.547,VALID,0,VALID,96.6483,VALID,-0.0169808,VALID,19.7788,VALID,147,VALID,1.86027,
2003-03-13, 03:23:00,VALID,917.559,VALID,0,VALID,96.6356,VALID,0,VALID,19.7783,VALID,148,VALID,1.44996,
2003-03-13, 03:24:00,VALID,917.554,VALID,0,VALID,96.6445,VALID,-0.0679233,VALID,19.7788,VALID,147,VALID,1.58919,
2003-03-13, 03:25:00,VALID,917.574,VALID,0,VALID,96.6496,VALID,-0.0339617,VALID,19.7919,VALID,138,VALID,1.42109,
2003-03-13, 03:26:00,VALID,917.578,VALID,0,VALID,96.6394,VALID,-0.0679233,VALID,19.7884,VALID,137,VALID,1.41715,
2003-03-13, 03:27:00,VALID,917.591,VALID,0,VALID,96.628,VALID,-0.0849042,VALID,19.7952,VALID,135,VALID,1.12336,
2003-03-13, 03:28:00,VALID,917.609,VALID,0,VALID,96.6051,VALID,-0.0339617,VALID,19.8049,VALID,146,VALID,1.21615,
2003-03-13, 03:29:00,VALID,917.628,VALID,0,VALID,96.6,VALID,-0.0339617,VALID,19.8113,VALID,140,VALID,1.25591,
2003-03-13, 03:30:00,VALID,917.64,VALID,0,VALID,96.5657,VALID,-0.0509425,VALID,19.8039,VALID,132,VALID,1.27488,
2003-03-13, 03:31:00,VALID,917.652,VALID,0,VALID,96.5377,VALID,-0.0679233,VALID,19.8138,VALID,146,VALID,1.75473,
2003-03-13, 03:32:00,VALID,917.662,VALID,0,VALID,96.4309,VALID,-0.0339617,VALID,19.827,VALID,154,VALID,1.84143,
2003-03-13, 03:33:00,VALID,917.684,VALID,0,VALID,96.3584,VALID,-0.0849042,VALID,19.8332,VALID,140,VALID,1.61465,